Year,Month,Day,Hour,Minute,Value (Times are PST for temperature in C)
2017,04,27,00,00,8.70
2017,04,27,00,01,8.70
2017,04,27,00,02,8.70
2017,04,27,00,03,8.70
2017,04,27,00,04,8.70
2017,04,27,00,05,8.70
2017,04,27,00,06,8.70
2017,04,27,00,07,8.70
2017,04,27,00,08,8.60
2017,04,27,00,09,8.60
2017,04,27,00,10,8.60
2017,04,27,00,11,8.60
2017,04,27,00,12,8.60
2017,04,27,00,13,8.60
2017,04,27,00,14,8.60
2017,04,27,00,15,8.60
2017,04,27,00,16,8.60
2017,04,27,00,17,8.60
2017,04,27,00,18,8.50
2017,04,27,00,19,8.50
2017,04,27,00,20,8.50
2017,04,27,00,21,8.50
2017,04,27,00,22,8.50
2017,04,27,00,23,8.40
2017,04,27,00,24,8.40
2017,04,27,00,25,8.40
2017,04,27,00,26,8.40
2017,04,27,00,27,8.30
2017,04,27,00,28,8.30
2017,04,27,00,29,8.30
2017,04,27,00,30,8.30
2017,04,27,00,31,8.30
2017,04,27,00,32,8.20
2017,04,27,00,33,8.20
2017,04,27,00,34,8.20
2017,04,27,00,35,8.10
2017,04,27,00,36,8.10
2017,04,27,00,37,8.10
2017,04,27,00,38,8.10
2017,04,27,00,39,8.10
2017,04,27,00,40,8.10
2017,04,27,00,41,8.00
2017,04,27,00,42,8.00
2017,04,27,00,43,8.00
2017,04,27,00,44,8.00
2017,04,27,00,45,8.00
2017,04,27,00,46,8.00
2017,04,27,00,47,8.00
2017,04,27,00,48,8.00
2017,04,27,00,49,8.00
2017,04,27,00,50,8.00
2017,04,27,00,51,8.00
2017,04,27,00,52,8.00
2017,04,27,00,53,8.00
2017,04,27,00,54,8.00
2017,04,27,00,55,8.00
2017,04,27,00,56,8.10
2017,04,27,00,57,8.10
2017,04,27,00,58,8.10
2017,04,27,00,59,8.10
2017,04,27,01,00,8.10
2017,04,27,01,01,8.10
2017,04,27,01,02,8.10
2017,04,27,01,03,8.10
2017,04,27,01,04,8.10
2017,04,27,01,05,8.10
2017,04,27,01,06,8.10
2017,04,27,01,07,8.20
2017,04,27,01,08,8.20
2017,04,27,01,09,8.20
2017,04,27,01,10,8.10
2017,04,27,01,11,8.10
2017,04,27,01,12,8.10
2017,04,27,01,13,8.10
2017,04,27,01,14,8.10
2017,04,27,01,15,8.10
2017,04,27,01,16,8.10
2017,04,27,01,17,8.00
2017,04,27,01,18,8.00
2017,04,27,01,19,8.00
2017,04,27,01,20,7.90
2017,04,27,01,21,7.90
2017,04,27,01,22,7.90
2017,04,27,01,23,7.90
2017,04,27,01,24,7.90
2017,04,27,01,25,7.90
2017,04,27,01,26,7.90
2017,04,27,01,27,7.80
2017,04,27,01,28,7.80
2017,04,27,01,29,7.80
2017,04,27,01,30,7.80
2017,04,27,01,31,7.80
2017,04,27,01,32,7.80
2017,04,27,01,33,7.80
2017,04,27,01,34,7.80
2017,04,27,01,35,7.80
2017,04,27,01,36,7.70
2017,04,27,01,37,7.70
2017,04,27,01,38,7.70
2017,04,27,01,39,7.80
2017,04,27,01,40,7.80
2017,04,27,01,41,7.80
2017,04,27,01,42,7.80
2017,04,27,01,43,7.80
2017,04,27,01,44,7.80
2017,04,27,01,45,7.90
2017,04,27,01,46,7.90
2017,04,27,01,47,7.90
2017,04,27,01,48,7.90
2017,04,27,01,49,7.90
2017,04,27,01,50,7.80
2017,04,27,01,51,7.80
2017,04,27,01,52,7.80
2017,04,27,01,53,7.80
2017,04,27,01,54,7.70
2017,04,27,01,55,7.70
2017,04,27,01,56,7.70
2017,04,27,01,57,7.70
2017,04,27,01,58,7.70
2017,04,27,01,59,7.70
2017,04,27,02,00,7.60
2017,04,27,02,01,7.60
2017,04,27,02,02,7.60
2017,04,27,02,03,7.60
2017,04,27,02,04,7.60
2017,04,27,02,05,7.60
2017,04,27,02,06,7.60
2017,04,27,02,07,7.60
2017,04,27,02,08,7.60
2017,04,27,02,09,7.60
2017,04,27,02,10,7.60
2017,04,27,02,11,7.70
2017,04,27,02,12,7.70
2017,04,27,02,13,7.70
2017,04,27,02,14,7.70
2017,04,27,02,15,7.70
2017,04,27,02,16,7.70
2017,04,27,02,17,7.70
2017,04,27,02,18,7.70
2017,04,27,02,19,7.60
2017,04,27,02,20,7.60
2017,04,27,02,21,7.60
2017,04,27,02,22,7.60
2017,04,27,02,23,7.60
2017,04,27,02,24,7.60
2017,04,27,02,25,7.50
2017,04,27,02,26,7.50
2017,04,27,02,27,7.40
2017,04,27,02,28,7.40
2017,04,27,02,29,7.30
2017,04,27,02,30,7.30
2017,04,27,02,31,7.30
2017,04,27,02,32,7.30
2017,04,27,02,33,7.30
2017,04,27,02,34,7.30
2017,04,27,02,35,7.30
2017,04,27,02,36,7.30
2017,04,27,02,37,7.30
2017,04,27,02,38,7.30
2017,04,27,02,39,7.30
2017,04,27,02,40,7.40
2017,04,27,02,41,7.40
2017,04,27,02,42,7.40
2017,04,27,02,43,7.40
2017,04,27,02,44,7.30
2017,04,27,02,45,7.30
2017,04,27,02,46,7.30
2017,04,27,02,47,7.30
2017,04,27,02,48,7.30
2017,04,27,02,49,7.30
2017,04,27,02,50,7.30
2017,04,27,02,51,7.30
2017,04,27,02,52,7.30
2017,04,27,02,53,7.30
2017,04,27,02,54,7.30
2017,04,27,02,55,7.30
2017,04,27,02,56,7.30
2017,04,27,02,57,7.30
2017,04,27,02,58,7.30
2017,04,27,02,59,7.20
2017,04,27,03,00,7.20
2017,04,27,03,01,7.30
2017,04,27,03,02,7.30
2017,04,27,03,03,7.30
2017,04,27,03,04,7.30
2017,04,27,03,05,7.30
2017,04,27,03,06,7.30
2017,04,27,03,07,7.30
2017,04,27,03,08,7.30
2017,04,27,03,09,7.30
2017,04,27,03,10,7.30
2017,04,27,03,11,7.30
2017,04,27,03,12,7.30
2017,04,27,03,13,7.30
2017,04,27,03,14,7.40
2017,04,27,03,15,7.40
2017,04,27,03,16,7.40
2017,04,27,03,17,7.40
2017,04,27,03,18,7.40
2017,04,27,03,19,7.50
2017,04,27,03,20,7.50
2017,04,27,03,21,7.60
2017,04,27,03,22,7.60
2017,04,27,03,23,7.60
2017,04,27,03,24,7.70
2017,04,27,03,25,7.70
2017,04,27,03,26,7.70
2017,04,27,03,27,7.70
2017,04,27,03,28,7.80
2017,04,27,03,29,7.80
2017,04,27,03,30,7.80
2017,04,27,03,31,7.80
2017,04,27,03,32,7.80
2017,04,27,03,33,7.80
2017,04,27,03,34,7.80
2017,04,27,03,35,7.80
2017,04,27,03,36,7.80
2017,04,27,03,37,7.80
2017,04,27,03,38,7.80
2017,04,27,03,39,7.80
2017,04,27,03,40,7.80
2017,04,27,03,41,7.80
2017,04,27,03,42,7.80
2017,04,27,03,43,7.80
2017,04,27,03,44,7.80
2017,04,27,03,45,7.80
2017,04,27,03,46,7.80
2017,04,27,03,47,7.80
2017,04,27,03,48,7.80
2017,04,27,03,49,7.80
2017,04,27,03,50,7.70
2017,04,27,03,51,7.70
2017,04,27,03,52,7.70
2017,04,27,03,53,7.70
2017,04,27,03,54,7.70
2017,04,27,03,55,7.70
2017,04,27,03,56,7.70
2017,04,27,03,57,7.70
2017,04,27,03,58,7.60
2017,04,27,03,59,7.60
2017,04,27,04,00,7.60
2017,04,27,04,01,7.60
2017,04,27,04,02,7.60
2017,04,27,04,03,7.60
2017,04,27,04,04,7.60
2017,04,27,04,05,7.60
2017,04,27,04,06,7.60
2017,04,27,04,07,7.60
2017,04,27,04,08,7.50
2017,04,27,04,09,7.50
2017,04,27,04,10,7.50
2017,04,27,04,11,7.50
2017,04,27,04,12,7.40
2017,04,27,04,13,7.40
2017,04,27,04,14,7.30
2017,04,27,04,15,7.30
2017,04,27,04,16,7.30
2017,04,27,04,17,7.30
2017,04,27,04,18,7.30
2017,04,27,04,19,7.30
2017,04,27,04,20,7.30
2017,04,27,04,21,7.30
2017,04,27,04,22,7.30
2017,04,27,04,23,7.30
2017,04,27,04,24,7.20
2017,04,27,04,25,7.20
2017,04,27,04,26,7.20
2017,04,27,04,27,7.20
2017,04,27,04,28,7.20
2017,04,27,04,29,7.20
2017,04,27,04,30,7.20
2017,04,27,04,31,7.20
2017,04,27,04,32,7.20
2017,04,27,04,33,7.20
2017,04,27,04,34,7.20
2017,04,27,04,35,7.20
2017,04,27,04,36,7.20
2017,04,27,04,37,7.20
2017,04,27,04,38,7.20
2017,04,27,04,39,7.10
2017,04,27,04,40,7.10
2017,04,27,04,41,7.00
2017,04,27,04,42,7.00
2017,04,27,04,43,6.90
2017,04,27,04,44,6.90
2017,04,27,04,45,6.90
2017,04,27,04,46,6.80
2017,04,27,04,47,6.80
2017,04,27,04,48,6.80
2017,04,27,04,49,6.70
2017,04,27,04,50,6.70
2017,04,27,04,51,6.70
2017,04,27,04,52,6.60
2017,04,27,04,53,6.60
2017,04,27,04,54,6.50
2017,04,27,04,55,6.50
2017,04,27,04,56,6.40
2017,04,27,04,57,6.40
2017,04,27,04,58,6.30
2017,04,27,04,59,6.30
2017,04,27,05,00,6.30
2017,04,27,05,01,6.30
2017,04,27,05,02,6.20
2017,04,27,05,03,6.20
2017,04,27,05,04,6.20
2017,04,27,05,05,6.20
2017,04,27,05,06,6.20
2017,04,27,05,07,6.20
2017,04,27,05,08,6.10
2017,04,27,05,09,6.10
2017,04,27,05,10,6.10
2017,04,27,05,11,6.10
2017,04,27,05,12,6.10
2017,04,27,05,13,6.10
2017,04,27,05,14,6.00
2017,04,27,05,15,6.00
2017,04,27,05,16,6.00
2017,04,27,05,17,6.00
2017,04,27,05,18,6.00
2017,04,27,05,19,5.90
2017,04,27,05,20,5.90
2017,04,27,05,21,5.90
2017,04,27,05,22,5.90
2017,04,27,05,23,5.90
2017,04,27,05,24,5.80
2017,04,27,05,25,5.80
2017,04,27,05,26,5.80
2017,04,27,05,27,5.80
2017,04,27,05,28,5.70
2017,04,27,05,29,5.70
2017,04,27,05,30,5.70
2017,04,27,05,31,5.60
2017,04,27,05,32,5.60
2017,04,27,05,33,5.60
2017,04,27,05,34,5.60
2017,04,27,05,35,5.50
2017,04,27,05,36,5.50
2017,04,27,05,37,5.50
2017,04,27,05,38,5.40
2017,04,27,05,39,5.40
2017,04,27,05,40,5.40
2017,04,27,05,41,5.30
2017,04,27,05,42,5.30
2017,04,27,05,43,5.30
2017,04,27,05,44,5.30
2017,04,27,05,45,5.30
2017,04,27,05,46,5.30
2017,04,27,05,47,5.20
2017,04,27,05,48,5.20
2017,04,27,05,49,5.20
2017,04,27,05,50,5.20
2017,04,27,05,51,5.20
2017,04,27,05,52,5.20
2017,04,27,05,53,5.20
2017,04,27,05,54,5.20
2017,04,27,05,55,5.10
2017,04,27,05,56,5.10
2017,04,27,05,57,5.10
2017,04,27,05,58,5.10
2017,04,27,05,59,5.10
2017,04,27,06,00,5.00
2017,04,27,06,01,5.00
2017,04,27,06,02,5.00
2017,04,27,06,03,5.00
2017,04,27,06,04,5.00
2017,04,27,06,05,4.90
2017,04,27,06,06,4.90
2017,04,27,06,07,4.90
2017,04,27,06,08,4.90
2017,04,27,06,09,4.90
2017,04,27,06,10,4.90
2017,04,27,06,11,4.90
2017,04,27,06,12,4.80
2017,04,27,06,13,4.80
2017,04,27,06,14,4.80
2017,04,27,06,15,4.80
2017,04,27,06,16,4.80
2017,04,27,06,17,4.80
2017,04,27,06,18,4.80
2017,04,27,06,19,4.80
2017,04,27,06,20,4.80
2017,04,27,06,21,4.90
2017,04,27,06,22,4.90
2017,04,27,06,23,4.90
2017,04,27,06,24,4.90
2017,04,27,06,25,4.90
2017,04,27,06,26,4.90
2017,04,27,06,27,5.00
2017,04,27,06,28,5.00
2017,04,27,06,29,5.00
2017,04,27,06,30,5.10
2017,04,27,06,31,5.10
2017,04,27,06,32,5.10
2017,04,27,06,33,5.10
2017,04,27,06,34,5.10
2017,04,27,06,35,5.10
2017,04,27,06,36,5.20
2017,04,27,06,37,5.20
2017,04,27,06,38,5.20
2017,04,27,06,39,5.30
2017,04,27,06,40,5.30
2017,04,27,06,41,5.30
2017,04,27,06,42,5.40
2017,04,27,06,43,5.40
2017,04,27,06,44,5.40
2017,04,27,06,45,5.50
2017,04,27,06,46,5.50
2017,04,27,06,47,5.60
2017,04,27,06,48,5.60
2017,04,27,06,49,5.70
2017,04,27,06,50,5.70
2017,04,27,06,51,5.70
2017,04,27,06,52,5.80
2017,04,27,06,53,5.80
2017,04,27,06,54,5.90
2017,04,27,06,55,5.90
2017,04,27,06,56,6.00
2017,04,27,06,57,6.00
2017,04,27,06,58,6.10
2017,04,27,06,59,6.20
2017,04,27,07,00,6.20
2017,04,27,07,01,6.30
2017,04,27,07,02,6.30
2017,04,27,07,03,6.40
2017,04,27,07,04,6.40
2017,04,27,07,05,6.50
2017,04,27,07,06,6.50
2017,04,27,07,07,6.60
2017,04,27,07,08,6.60
2017,04,27,07,09,6.70
2017,04,27,07,10,6.70
2017,04,27,07,11,6.70
2017,04,27,07,12,6.80
2017,04,27,07,13,6.80
2017,04,27,07,14,6.80
2017,04,27,07,15,6.80
2017,04,27,07,16,6.90
2017,04,27,07,17,6.90
2017,04,27,07,18,6.90
2017,04,27,07,19,6.90
2017,04,27,07,20,6.80
2017,04,27,07,21,6.80
2017,04,27,07,22,6.80
2017,04,27,07,23,6.90
2017,04,27,07,24,6.90
2017,04,27,07,25,6.90
2017,04,27,07,26,6.90
2017,04,27,07,27,6.90
2017,04,27,07,28,6.90
2017,04,27,07,29,6.90
2017,04,27,07,30,6.90
2017,04,27,07,31,6.90
2017,04,27,07,32,6.90
2017,04,27,07,33,6.90
2017,04,27,07,34,6.90
2017,04,27,07,35,6.90
2017,04,27,07,36,6.90
2017,04,27,07,37,6.90
2017,04,27,07,38,6.90
2017,04,27,07,39,6.90
2017,04,27,07,40,6.90
2017,04,27,07,41,6.90
2017,04,27,07,42,6.90
2017,04,27,07,43,7.00
2017,04,27,07,44,7.00
2017,04,27,07,45,7.00
2017,04,27,07,46,7.10
2017,04,27,07,47,7.10
2017,04,27,07,48,7.10
2017,04,27,07,49,7.20
2017,04,27,07,50,7.20
2017,04,27,07,51,7.20
2017,04,27,07,52,7.20
2017,04,27,07,53,7.30
2017,04,27,07,54,7.40
2017,04,27,07,55,7.50
2017,04,27,07,56,7.50
2017,04,27,07,57,7.60
2017,04,27,07,58,7.70
2017,04,27,07,59,7.70
2017,04,27,08,00,7.80
2017,04,27,08,01,7.80
2017,04,27,08,02,7.90
2017,04,27,08,03,8.00
2017,04,27,08,04,8.00
2017,04,27,08,05,8.10
2017,04,27,08,06,8.10
2017,04,27,08,07,8.20
2017,04,27,08,08,8.20
2017,04,27,08,09,8.20
2017,04,27,08,10,8.30
2017,04,27,08,11,8.30
2017,04,27,08,12,8.40
2017,04,27,08,13,8.40
2017,04,27,08,14,8.40
2017,04,27,08,15,8.50
2017,04,27,08,16,8.50
2017,04,27,08,17,8.50
2017,04,27,08,18,8.60
2017,04,27,08,19,8.60
2017,04,27,08,20,8.60
2017,04,27,08,21,8.60
2017,04,27,08,22,8.70
2017,04,27,08,23,8.70
2017,04,27,08,24,8.80
2017,04,27,08,25,8.80
2017,04,27,08,26,8.90
2017,04,27,08,27,8.90
2017,04,27,08,28,9.00
2017,04,27,08,29,9.00
2017,04,27,08,30,9.10
2017,04,27,08,31,9.10
2017,04,27,08,32,9.20
2017,04,27,08,33,9.20
2017,04,27,08,34,9.20
2017,04,27,08,35,9.20
2017,04,27,08,36,9.20
2017,04,27,08,37,9.20
2017,04,27,08,38,9.30
2017,04,27,08,39,9.30
2017,04,27,08,40,9.30
2017,04,27,08,41,9.30
2017,04,27,08,42,9.30
2017,04,27,08,43,9.30
2017,04,27,08,44,9.40
2017,04,27,08,45,9.40
2017,04,27,08,46,9.40
2017,04,27,08,47,9.40
2017,04,27,08,48,9.40
2017,04,27,08,49,9.40
2017,04,27,08,50,9.40
2017,04,27,08,51,9.50
2017,04,27,08,52,9.50
2017,04,27,08,53,9.50
2017,04,27,08,54,9.50
2017,04,27,08,55,9.50
2017,04,27,08,56,9.50
2017,04,27,08,57,9.50
2017,04,27,08,58,9.60
2017,04,27,08,59,9.60
2017,04,27,09,00,9.70
2017,04,27,09,01,9.70
2017,04,27,09,02,9.70
2017,04,27,09,03,9.80
2017,04,27,09,04,9.80
2017,04,27,09,05,9.80
2017,04,27,09,06,9.80
2017,04,27,09,07,9.90
2017,04,27,09,08,9.90
2017,04,27,09,09,10.00
2017,04,27,09,10,10.10
2017,04,27,09,11,10.10
2017,04,27,09,12,10.10
2017,04,27,09,13,10.20
2017,04,27,09,14,10.30
2017,04,27,09,15,10.30
2017,04,27,09,16,10.30
2017,04,27,09,17,10.20
2017,04,27,09,18,10.20
2017,04,27,09,19,10.10
2017,04,27,09,20,10.10
2017,04,27,09,21,10.10
2017,04,27,09,22,10.10
2017,04,27,09,23,10.10
2017,04,27,09,24,10.10
2017,04,27,09,25,10.10
2017,04,27,09,26,10.20
2017,04,27,09,27,10.20
2017,04,27,09,28,10.10
2017,04,27,09,29,10.10
2017,04,27,09,30,10.10
2017,04,27,09,31,10.10
2017,04,27,09,32,10.10
2017,04,27,09,33,10.10
2017,04,27,09,34,10.10
2017,04,27,09,35,10.10
2017,04,27,09,36,10.20
2017,04,27,09,37,10.10
2017,04,27,09,38,10.10
2017,04,27,09,39,10.20
2017,04,27,09,40,10.20
2017,04,27,09,41,10.20
2017,04,27,09,42,10.20
2017,04,27,09,43,10.20
2017,04,27,09,44,10.20
2017,04,27,09,45,10.20
2017,04,27,09,46,10.20
2017,04,27,09,47,10.30
2017,04,27,09,48,10.30
2017,04,27,09,49,10.30
2017,04,27,09,50,10.40
2017,04,27,09,51,10.40
2017,04,27,09,52,10.40
2017,04,27,09,53,10.40
2017,04,27,09,54,10.50
2017,04,27,09,55,10.50
2017,04,27,09,56,10.50
2017,04,27,09,57,10.60
2017,04,27,09,58,10.60
2017,04,27,09,59,10.60
2017,04,27,10,00,10.70
2017,04,27,10,01,10.70
2017,04,27,10,02,10.70
2017,04,27,10,03,10.70
2017,04,27,10,04,10.80
2017,04,27,10,05,10.80
2017,04,27,10,06,10.80
2017,04,27,10,07,10.80
2017,04,27,10,08,10.80
2017,04,27,10,09,10.80
2017,04,27,10,10,10.80
2017,04,27,10,11,10.80
2017,04,27,10,12,10.80
2017,04,27,10,13,10.80
2017,04,27,10,14,10.90
2017,04,27,10,15,10.90
2017,04,27,10,16,10.90
2017,04,27,10,17,10.90
2017,04,27,10,18,10.80
2017,04,27,10,19,10.90
2017,04,27,10,20,10.90
2017,04,27,10,21,11.00
2017,04,27,10,22,11.00
2017,04,27,10,23,10.90
2017,04,27,10,24,10.90
2017,04,27,10,25,10.90
2017,04,27,10,26,11.00
2017,04,27,10,27,10.90
2017,04,27,10,28,10.80
2017,04,27,10,29,10.80
2017,04,27,10,30,10.80
2017,04,27,10,31,10.80
2017,04,27,10,32,10.80
2017,04,27,10,33,10.80
2017,04,27,10,34,10.80
2017,04,27,10,35,10.80
2017,04,27,10,36,10.80
2017,04,27,10,37,10.80
2017,04,27,10,38,10.80
2017,04,27,10,39,10.90
2017,04,27,10,40,10.90
2017,04,27,10,41,10.90
2017,04,27,10,42,11.00
2017,04,27,10,43,11.00
2017,04,27,10,44,11.00
2017,04,27,10,45,11.10
2017,04,27,10,46,11.10
2017,04,27,10,47,11.20
2017,04,27,10,48,11.30
2017,04,27,10,49,11.30
2017,04,27,10,50,11.30
2017,04,27,10,51,11.20
2017,04,27,10,52,11.20
2017,04,27,10,53,11.20
2017,04,27,10,54,11.20
2017,04,27,10,55,11.20
2017,04,27,10,56,11.30
2017,04,27,10,57,11.30
2017,04,27,10,58,11.30
2017,04,27,10,59,11.20
2017,04,27,11,00,11.30
2017,04,27,11,01,11.30
2017,04,27,11,02,11.30
2017,04,27,11,03,11.30
2017,04,27,11,04,11.20
2017,04,27,11,05,11.10
2017,04,27,11,06,11.10
2017,04,27,11,07,11.10
2017,04,27,11,08,11.00
2017,04,27,11,09,11.00
2017,04,27,11,10,10.90
2017,04,27,11,11,10.90
2017,04,27,11,12,10.90
2017,04,27,11,13,10.80
2017,04,27,11,14,10.80
2017,04,27,11,15,10.70
2017,04,27,11,16,10.60
2017,04,27,11,17,10.60
2017,04,27,11,18,10.60
2017,04,27,11,19,10.60
2017,04,27,11,20,10.70
2017,04,27,11,21,10.70
2017,04,27,11,22,10.70
2017,04,27,11,23,10.70
2017,04,27,11,24,10.60
2017,04,27,11,25,10.60
2017,04,27,11,26,10.50
2017,04,27,11,27,10.50
2017,04,27,11,28,10.40
2017,04,27,11,29,10.30
2017,04,27,11,30,10.30
2017,04,27,11,31,10.20
2017,04,27,11,32,10.20
2017,04,27,11,33,10.20
2017,04,27,11,34,10.30
2017,04,27,11,35,10.30
2017,04,27,11,36,10.40
2017,04,27,11,37,10.60
2017,04,27,11,38,10.70
2017,04,27,11,39,10.80
2017,04,27,11,40,10.90
2017,04,27,11,41,11.00
2017,04,27,11,42,11.10
2017,04,27,11,43,11.10
2017,04,27,11,44,11.10
2017,04,27,11,45,11.00
2017,04,27,11,46,11.00
2017,04,27,11,47,11.00
2017,04,27,11,48,11.00
2017,04,27,11,49,11.10
2017,04,27,11,50,11.10
2017,04,27,11,51,11.00
2017,04,27,11,52,10.90
2017,04,27,11,53,11.00
2017,04,27,11,54,11.10
2017,04,27,11,55,11.20
2017,04,27,11,56,11.20
2017,04,27,11,57,11.30
2017,04,27,11,58,11.30
2017,04,27,11,59,11.40
2017,04,27,12,00,11.50
2017,04,27,12,01,11.60
2017,04,27,12,02,11.70
2017,04,27,12,03,11.80
2017,04,27,12,04,11.80
2017,04,27,12,05,11.90
2017,04,27,12,06,11.80
2017,04,27,12,07,11.70
2017,04,27,12,08,11.60
2017,04,27,12,09,11.40
2017,04,27,12,10,11.30
2017,04,27,12,11,11.10
2017,04,27,12,12,11.10
2017,04,27,12,13,11.00
2017,04,27,12,14,10.90
2017,04,27,12,15,10.80
2017,04,27,12,16,10.70
2017,04,27,12,17,10.70
2017,04,27,12,18,10.70
2017,04,27,12,19,10.70
2017,04,27,12,20,10.80
2017,04,27,12,21,10.80
2017,04,27,12,22,10.90
2017,04,27,12,23,11.00
2017,04,27,12,24,11.10
2017,04,27,12,25,11.20
2017,04,27,12,26,11.20
2017,04,27,12,27,11.20
2017,04,27,12,28,11.20
2017,04,27,12,29,11.20
2017,04,27,12,30,11.10
2017,04,27,12,31,11.10
2017,04,27,12,32,11.00
2017,04,27,12,33,11.00
2017,04,27,12,34,10.90
2017,04,27,12,35,10.90
2017,04,27,12,36,10.80
2017,04,27,12,37,10.80
2017,04,27,12,38,10.70
2017,04,27,12,39,10.70
2017,04,27,12,40,10.70
2017,04,27,12,41,10.70
2017,04,27,12,42,10.60
2017,04,27,12,43,10.60
2017,04,27,12,44,10.60
2017,04,27,12,45,10.60
2017,04,27,12,46,10.60
2017,04,27,12,47,10.60
2017,04,27,12,48,10.60
2017,04,27,12,49,10.70
2017,04,27,12,50,10.70
2017,04,27,12,51,10.70
2017,04,27,12,52,10.70
2017,04,27,12,53,10.60
2017,04,27,12,54,10.60
2017,04,27,12,55,10.60
2017,04,27,12,56,10.60
2017,04,27,12,57,10.50
2017,04,27,12,58,10.60
2017,04,27,12,59,10.60
2017,04,27,13,00,10.60
2017,04,27,13,01,10.60
2017,04,27,13,02,10.70
2017,04,27,13,03,10.70
2017,04,27,13,04,10.80
2017,04,27,13,05,10.80
2017,04,27,13,06,10.80
2017,04,27,13,07,10.80
2017,04,27,13,08,10.80
2017,04,27,13,09,10.80
2017,04,27,13,10,10.80
2017,04,27,13,11,10.80
2017,04,27,13,12,10.80
2017,04,27,13,13,10.80
2017,04,27,13,14,10.80
2017,04,27,13,15,10.90
2017,04,27,13,16,10.90
2017,04,27,13,17,10.90
2017,04,27,13,18,10.90
2017,04,27,13,19,10.90
2017,04,27,13,20,10.90
2017,04,27,13,21,10.90
2017,04,27,13,22,10.90
2017,04,27,13,23,10.90
2017,04,27,13,24,10.90
2017,04,27,13,25,10.80
2017,04,27,13,26,10.80
2017,04,27,13,27,10.80
2017,04,27,13,28,10.90
2017,04,27,13,29,10.90
2017,04,27,13,30,10.90
2017,04,27,13,31,10.80
2017,04,27,13,32,10.70
2017,04,27,13,33,10.70
2017,04,27,13,34,10.70
2017,04,27,13,35,10.70
2017,04,27,13,36,10.80
2017,04,27,13,37,10.90
2017,04,27,13,38,11.00
2017,04,27,13,39,11.10
2017,04,27,13,40,11.30
2017,04,27,13,41,11.40
2017,04,27,13,42,11.60
2017,04,27,13,43,11.70
2017,04,27,13,44,11.80
2017,04,27,13,45,12.00
2017,04,27,13,46,12.10
2017,04,27,13,47,12.30
2017,04,27,13,48,12.40
2017,04,27,13,49,12.50
2017,04,27,13,50,12.60
2017,04,27,13,51,12.70
2017,04,27,13,52,12.70
2017,04,27,13,53,12.70
2017,04,27,13,54,12.70
2017,04,27,13,55,12.70
2017,04,27,13,56,12.80
2017,04,27,13,57,12.80
2017,04,27,13,58,12.80
2017,04,27,13,59,12.80
2017,04,27,14,00,12.70
2017,04,27,14,01,12.70
2017,04,27,14,02,12.60
2017,04,27,14,03,12.50
2017,04,27,14,04,12.50
2017,04,27,14,05,12.40
2017,04,27,14,06,12.40
2017,04,27,14,07,12.30
2017,04,27,14,08,12.20
2017,04,27,14,09,12.10
2017,04,27,14,10,12.00
2017,04,27,14,11,11.90
2017,04,27,14,12,11.90
2017,04,27,14,13,11.80
2017,04,27,14,14,11.80
2017,04,27,14,15,11.80
2017,04,27,14,16,11.80
2017,04,27,14,17,11.80
2017,04,27,14,18,11.90
2017,04,27,14,19,12.00
2017,04,27,14,20,12.10
2017,04,27,14,21,12.20
2017,04,27,14,22,12.30
2017,04,27,14,23,12.40
2017,04,27,14,24,12.60
2017,04,27,14,25,12.70
2017,04,27,14,26,12.70
2017,04,27,14,27,12.80
2017,04,27,14,28,12.80
2017,04,27,14,29,12.90
2017,04,27,14,30,12.90
2017,04,27,14,31,13.00
2017,04,27,14,32,13.10
2017,04,27,14,33,13.20
2017,04,27,14,34,13.30
2017,04,27,14,35,13.40
2017,04,27,14,36,13.30
2017,04,27,14,37,13.20
2017,04,27,14,38,13.00
2017,04,27,14,39,12.80
2017,04,27,14,40,12.80
2017,04,27,14,41,12.80
2017,04,27,14,42,12.90
2017,04,27,14,43,13.00
2017,04,27,14,44,13.10
2017,04,27,14,45,13.20
2017,04,27,14,46,13.30
2017,04,27,14,47,13.30
2017,04,27,14,48,13.30
2017,04,27,14,49,13.30
2017,04,27,14,50,13.40
2017,04,27,14,51,13.40
2017,04,27,14,52,13.30
2017,04,27,14,53,13.20
2017,04,27,14,54,13.10
2017,04,27,14,55,13.00
2017,04,27,14,56,13.00
2017,04,27,14,57,12.90
2017,04,27,14,58,12.80
2017,04,27,14,59,12.70
2017,04,27,15,00,12.70
2017,04,27,15,01,12.70
2017,04,27,15,02,12.80
2017,04,27,15,03,12.80
2017,04,27,15,04,12.70
2017,04,27,15,05,12.60
2017,04,27,15,06,12.40
2017,04,27,15,07,12.40
2017,04,27,15,08,12.30
2017,04,27,15,09,12.30
2017,04,27,15,10,12.20
2017,04,27,15,11,12.20
2017,04,27,15,12,12.10
2017,04,27,15,13,12.10
2017,04,27,15,14,12.10
2017,04,27,15,15,12.00
2017,04,27,15,16,12.00
2017,04,27,15,17,11.90
2017,04,27,15,18,11.80
2017,04,27,15,19,11.70
2017,04,27,15,20,11.70
2017,04,27,15,21,11.70
2017,04,27,15,22,11.60
2017,04,27,15,23,11.50
2017,04,27,15,24,11.50
2017,04,27,15,25,11.40
2017,04,27,15,26,11.40
2017,04,27,15,27,11.40
2017,04,27,15,28,11.30
2017,04,27,15,29,11.30
2017,04,27,15,30,11.10
2017,04,27,15,31,11.00
2017,04,27,15,32,10.90
2017,04,27,15,33,10.80
2017,04,27,15,34,10.80
2017,04,27,15,35,10.70
2017,04,27,15,36,10.70
2017,04,27,15,37,10.60
2017,04,27,15,38,10.50
2017,04,27,15,39,10.40
2017,04,27,15,40,10.40
2017,04,27,15,41,10.30
2017,04,27,15,42,10.40
2017,04,27,15,43,10.40
2017,04,27,15,44,10.50
2017,04,27,15,45,10.60
2017,04,27,15,46,10.70
2017,04,27,15,47,10.90
2017,04,27,15,48,10.90
2017,04,27,15,49,11.10
2017,04,27,15,50,11.20
2017,04,27,15,51,11.20
2017,04,27,15,52,11.20
2017,04,27,15,53,11.20
2017,04,27,15,54,11.30
2017,04,27,15,55,11.40
2017,04,27,15,56,11.50
2017,04,27,15,57,11.50
2017,04,27,15,58,11.40
2017,04,27,15,59,11.30
2017,04,27,16,00,11.30
2017,04,27,16,01,11.30
2017,04,27,16,02,11.30
2017,04,27,16,03,11.20
2017,04,27,16,04,11.20
2017,04,27,16,05,11.10
2017,04,27,16,06,11.00
2017,04,27,16,07,10.90
2017,04,27,16,08,10.80
2017,04,27,16,09,10.80
2017,04,27,16,10,10.80
2017,04,27,16,11,10.80
2017,04,27,16,12,10.80
2017,04,27,16,13,10.80
2017,04,27,16,14,10.80
2017,04,27,16,15,10.80
2017,04,27,16,16,10.80
2017,04,27,16,17,10.80
2017,04,27,16,18,10.90
2017,04,27,16,19,10.90
2017,04,27,16,20,10.80
2017,04,27,16,21,10.80
2017,04,27,16,22,10.80
2017,04,27,16,23,10.80
2017,04,27,16,24,10.80
2017,04,27,16,25,10.80
2017,04,27,16,26,10.80
2017,04,27,16,27,10.70
2017,04,27,16,28,10.60
2017,04,27,16,29,10.60
2017,04,27,16,30,10.50
2017,04,27,16,31,10.40
2017,04,27,16,32,10.30
2017,04,27,16,33,10.30
2017,04,27,16,34,10.10
2017,04,27,16,35,10.00
2017,04,27,16,36,9.90
2017,04,27,16,37,9.80
2017,04,27,16,38,9.60
2017,04,27,16,39,9.60
2017,04,27,16,40,9.50
2017,04,27,16,41,9.50
2017,04,27,16,42,9.40
2017,04,27,16,43,9.30
2017,04,27,16,44,9.30
2017,04,27,16,45,9.20
2017,04,27,16,46,9.20
2017,04,27,16,47,9.20
2017,04,27,16,48,9.20
2017,04,27,16,49,9.20
2017,04,27,16,50,9.20
2017,04,27,16,51,9.10
2017,04,27,16,52,9.00
2017,04,27,16,53,8.90
2017,04,27,16,54,8.90
2017,04,27,16,55,8.80
2017,04,27,16,56,8.80
2017,04,27,16,57,8.80
2017,04,27,16,58,8.70
2017,04,27,16,59,8.70
2017,04,27,17,00,8.70
2017,04,27,17,01,8.70
2017,04,27,17,02,8.70
2017,04,27,17,03,8.70
2017,04,27,17,04,8.70
2017,04,27,17,05,8.60
2017,04,27,17,06,8.60
2017,04,27,17,07,8.60
2017,04,27,17,08,8.60
2017,04,27,17,09,8.50
2017,04,27,17,10,8.50
2017,04,27,17,11,8.50
2017,04,27,17,12,8.50
2017,04,27,17,13,8.50
2017,04,27,17,14,8.40
2017,04,27,17,15,8.40
2017,04,27,17,16,8.40
2017,04,27,17,17,8.40
2017,04,27,17,18,8.40
2017,04,27,17,19,8.40
2017,04,27,17,20,8.40
2017,04,27,17,21,8.40
2017,04,27,17,22,8.40
2017,04,27,17,23,8.50
2017,04,27,17,24,8.50
2017,04,27,17,25,8.60
2017,04,27,17,26,8.60
2017,04,27,17,27,8.60
2017,04,27,17,28,8.70
2017,04,27,17,29,8.70
2017,04,27,17,30,8.70
2017,04,27,17,31,8.80
2017,04,27,17,32,8.80
2017,04,27,17,33,8.80
2017,04,27,17,34,8.90
2017,04,27,17,35,8.90
2017,04,27,17,36,8.90
2017,04,27,17,37,9.00
2017,04,27,17,38,9.00
2017,04,27,17,39,9.10
2017,04,27,17,40,9.10
2017,04,27,17,41,9.10
2017,04,27,17,42,9.10
2017,04,27,17,43,9.10
2017,04,27,17,44,9.20
2017,04,27,17,45,9.20
2017,04,27,17,46,9.20